Simultaneous Nadir Overpasses (SNOs) Predictions

Prediction of SNOs between NOAA-20 and AQUA Satellite Orbit:

Table of predicted SNOs for the next 14.0 days since TLE Epoch: 6/25/2022
Index Date (NOAA-20) Time (NOAA-20) Lat,Lon (NOAA-20) SZA (NOAA-20 ) Date (AQUA) Time (AQUA) Lat,Lon (AQUA) SZA (AQUA ) Distance(km) Time Diff (sec)
1 06/27/2022 04:20:36 78.08, 2.43 71.81 06/27/2022 04:21:25 78.08, 2.44 71.77 0.31 49
2 06/27/2022 05:11:09 -78.58, 172.56 108.92 06/27/2022 05:10:40 -78.58, 172.60 108.90 0.90 29
3 06/29/2022 19:46:46 -78.07, -49.19 108.02 06/29/2022 19:47:57 -78.06, -49.27 108.06 2.05 71
4 06/29/2022 20:37:20 78.46, 120.32 71.42 06/29/2022 20:37:13 78.47, 120.38 71.41 1.57 7
5 07/02/2022 12:03:28 -78.52, 69.14 108.48 07/02/2022 12:03:43 -78.52, 69.02 108.47 2.80 15
6 07/02/2022 12:54:03 78.86,-121.43 71.01 07/02/2022 12:53:00 78.87,-121.41 71.05 0.54 63
7 07/05/2022 03:29:41 78.28, 16.19 72.12 07/05/2022 03:30:17 78.28, 16.19 72.10 0.13 36
8 07/05/2022 04:20:14 -78.77,-173.55 108.61 07/05/2022 04:19:32 -78.78,-173.54 108.59 0.35 42
9 07/07/2022 18:55:51 -78.27, -35.43 107.58 07/07/2022 18:56:48 -78.26, -35.52 107.60 2.34 57



Historial Predications of SNOs between NOAA-20 and AQUA
